Location: Natural Bridges National Monument
(37.6093°N, 109.9767°W)
Time: 02:13:53
(UTC-06:00)

USA 32 - Visible Passes

Search period start: 27 August 2016 00:00
Search period end: 06 September 2016 00:00
Orbit: 779 x 782 km, 85.0° (Epoch: 03 July)

Date Brightness Start Highest point End Pass type
(mag) Time Alt. Az. Time Alt. Az. Time Alt. Az.
27 Aug 6.7 04:00:26 10° ESE 04:03:24 15° E 04:06:24 10° NE visible
27 Aug 4.2 05:38:43 10° SSW 05:43:49 53° W 05:48:57 10° N visible
28 Aug 4.0 05:06:16 13° S 05:11:01 84° E 05:16:18 10° N visible
29 Aug 5.0 04:34:25 16° SSE 04:38:21 45° E 04:43:19 10° NNE visible
29 Aug 5.5 06:15:54 10° WSW 06:19:30 19° WNW 06:23:08 10° NNW visible
30 Aug 6.0 04:02:30 14° SE 04:05:46 25° E 04:09:58 10° NNE visible
30 Aug 4.7 05:43:05 16° SW 05:46:30 33° W 05:51:13 10° NNW visible
31 Aug 6.7 03:30:47 10° ESE 03:33:18 14° E 03:35:49 10° NE visible
31 Aug 4.0 05:11:07 30° SSW 05:13:38 60° W 05:18:49 10° N visible
01 Sep 4.1 04:39:07 43° SSE 04:40:51 74° E 04:46:06 10° N visible
01 Sep 5.9 06:20:47 10° W 06:22:22 11° WNW 06:23:58 10° NW visible
02 Sep 5.1 04:07:03 35° ESE 04:08:12 40° E 04:13:04 10° NNE visible
02 Sep 5.3 05:47:37 18° W 05:49:17 21° WNW 05:53:11 10° NNW visible
03 Sep 6.0 03:34:58 22° E 03:35:38 22° E 03:39:36 10° NE visible
03 Sep 4.6 05:15:32 35° W 05:16:18 37° W 05:21:09 10° NNW visible
04 Sep 6.7 03:02:50 12° E 03:03:11 12° E 03:05:06 10° ENE visible
04 Sep 3.9 04:43:24 68° W 04:43:26 68° W 04:48:40 10° N visible
05 Sep 4.4 04:11:14 61° NE 04:11:14 61° NE 04:15:53 10° N visible
05 Sep 5.8 05:51:48 13° WNW 05:52:07 13° WNW 05:54:27 10° NW visible
